Location: Baix
(44.7118°N, 4.7648°E)
Time: 02:28:09
(UTC+00:00)

Cosmos 968 Rocket - Pass Details

Date: 07 August 2020
Orbit: 740 x 771 km, 74.0° (Epoch: 19 September)

Event Time Altitude Azimuth Distance (km) Brightness Sun altitude
Exits shadow 00:19:14 60° 321° (NW) 852 3.8 -28.5°
Drops below altitude 10° 00:23:51 10° 15° (NNE) 2,264 6.9 -28.4°
Sets 00:26:15 0° 19° (NNE) 3,195 7.9 -28.3°
